MSR905 OJAI-HECA

Flight info

Callsign MSR905
Flight time 1h 3m
Altitude 26000
Route LOSIL M319 ULINA M690 NOVPA N697 MENLI L677 CVO
Aircraft B738/M-SDE2E3FGHIRWXY/LB1

Departure

Time 2026-05-05 19:01
Airport Queen Alia International Airport (OJAI)

Arrival

Time 2026-05-05 20:04
Airport Cairo International Airport (HECA)
Time Latitude Longitude Altitude Speed Heading
2026-05-05 18:50 31.72125 35.99094 2404 ft 0 kts 352°
2026-05-05 18:52 31.72122 35.99094 2404 ft 2 kts 349°
2026-05-05 18:52 31.72110 35.99099 2404 ft 2 kts 341°
2026-05-05 18:53 31.72096 35.99103 2404 ft 2 kts 346°
2026-05-05 18:53 31.72085 35.99107 2404 ft 2 kts 343°
2026-05-05 18:53 31.72077 35.99110 2404 ft 2 kts 344°
2026-05-05 18:54 31.72073 35.99111 2404 ft 2 kts 345°
2026-05-05 18:54 31.72061 35.99115 2404 ft 1 kts 358°
2026-05-05 18:54 31.72053 35.99112 2404 ft 1 kts 56°
2026-05-05 18:54 31.72050 35.99105 2404 ft 1 kts 89°
2026-05-05 18:55 31.72050 35.99099 2404 ft 0 kts 81°
2026-05-05 18:56 31.72053 35.99118 2404 ft 6 kts 81°
2026-05-05 18:56 31.72065 35.99198 2404 ft 14 kts 80°
2026-05-05 18:56 31.72086 35.99337 2404 ft 18 kts 78°
2026-05-05 18:56 31.72065 35.99472 2404 ft 17 kts 153°
2026-05-05 18:57 31.71947 35.99522 2404 ft 18 kts 149°
2026-05-05 18:57 31.71851 35.99623 2404 ft 21 kts 120°
2026-05-05 18:57 31.71783 35.99801 2404 ft 25 kts 105°
2026-05-05 18:57 31.71734 36.00009 2404 ft 28 kts 97°
2026-05-05 18:58 31.71758 36.00260 2404 ft 33 kts 79°
2026-05-05 18:58 31.71807 36.00545 2404 ft 39 kts 77°
2026-05-05 18:58 31.71844 36.00859 2404 ft 33 kts 89°
2026-05-05 18:58 31.71892 36.01141 2404 ft 37 kts 77°
2026-05-05 18:59 31.71945 36.01456 2404 ft 41 kts 81°
2026-05-05 18:59 31.71999 36.01759 2404 ft 23 kts 81°
2026-05-05 18:59 31.71970 36.01796 2404 ft 3 kts 245°
2026-05-05 18:59 31.71964 36.01768 2404 ft 4 kts 261°
2026-05-05 19:00 31.71963 36.01761 2404 ft 6 kts 261°
2026-05-05 19:00 31.71951 36.01662 2404 ft 27 kts 263°
2026-05-05 19:00 31.71947 36.01628 2404 ft 32 kts 264°
2026-05-05 19:00 31.71879 36.01098 2404 ft 100 kts 259°
2026-05-05 19:01 31.71725 36.00046 2404 ft 158 kts 260°
2026-05-05 19:01 31.71504 35.98638 2734 ft 177 kts 260°
2026-05-05 19:01 31.71138 35.97318 3369 ft 180 kts 245°
2026-05-05 19:01 31.70194 35.96103 3386 ft 226 kts 207°
2026-05-05 19:02 31.68559 35.95810 3760 ft 259 kts 173°
2026-05-05 19:02 31.66759 35.96254 4498 ft 270 kts 174°
2026-05-05 19:02 31.64821 35.96212 4789 ft 291 kts 191°
2026-05-05 19:02 31.62761 35.95782 5137 ft 313 kts 192°
2026-05-05 19:03 31.60527 35.95335 5446 ft 334 kts 192°
2026-05-05 19:03 31.58239 35.94881 6293 ft 337 kts 192°
2026-05-05 19:03 31.55910 35.94412 6998 ft 343 kts 192°
2026-05-05 19:03 31.53581 35.93944 7905 ft 342 kts 192°
2026-05-05 19:04 31.51233 35.93470 8628 ft 347 kts 192°
2026-05-05 19:04 31.48852 35.92990 9482 ft 346 kts 192°
2026-05-05 19:04 31.46497 35.92514 10206 ft 349 kts 192°
2026-05-05 19:04 31.44084 35.92028 10976 ft 350 kts 192°
2026-05-05 19:05 31.41692 35.91545 11699 ft 351 kts 192°
2026-05-05 19:05 31.39305 35.91064 12371 ft 354 kts 192°
2026-05-05 19:05 31.36866 35.90572 13027 ft 356 kts 192°
2026-05-05 19:05 31.34429 35.90081 13655 ft 358 kts 192°
2026-05-05 19:06 31.31945 35.89581 14282 ft 361 kts 192°
2026-05-05 19:06 31.29489 35.89086 14864 ft 363 kts 192°
2026-05-05 19:06 31.26983 35.88582 15442 ft 366 kts 193°
2026-05-05 19:06 31.24492 35.88082 15987 ft 368 kts 193°
2026-05-05 19:07 31.21942 35.87569 16525 ft 371 kts 193°
2026-05-05 19:07 31.19408 35.87060 17049 ft 373 kts 193°
2026-05-05 19:07 31.16849 35.86546 17548 ft 376 kts 193°
2026-05-05 19:07 31.14258 35.86026 18051 ft 378 kts 194°
2026-05-05 19:08 31.11649 35.85503 18513 ft 381 kts 194°
2026-05-05 19:08 31.09048 35.84981 18984 ft 383 kts 194°
2026-05-05 19:08 31.06429 35.84457 19431 ft 386 kts 194°
2026-05-05 19:08 31.03755 35.83920 19867 ft 388 kts 194°
2026-05-05 19:09 31.01102 35.83388 20265 ft 391 kts 194°
2026-05-05 19:09 30.98398 35.82847 20656 ft 394 kts 194°
2026-05-05 19:09 30.95692 35.82305 21026 ft 397 kts 194°
2026-05-05 19:09 30.92970 35.81761 21402 ft 400 kts 194°
2026-05-05 19:10 30.90234 35.81215 21761 ft 403 kts 194°
2026-05-05 19:10 30.87478 35.80664 22084 ft 406 kts 194°
2026-05-05 19:10 30.84695 35.80092 22459 ft 407 kts 196°
2026-05-05 19:10 30.81930 35.79329 22805 ft 407 kts 201°
2026-05-05 19:11 30.79299 35.78139 23135 ft 404 kts 210°
2026-05-05 19:11 30.76827 35.76626 23507 ft 404 kts 212°
2026-05-05 19:11 30.74343 35.75098 23816 ft 407 kts 212°
2026-05-05 19:11 30.71833 35.73595 24123 ft 409 kts 212°
2026-05-05 19:12 30.69313 35.72083 24431 ft 411 kts 212°
2026-05-05 19:12 30.66754 35.70536 24706 ft 413 kts 212°
2026-05-05 19:12 30.64229 35.69008 24983 ft 416 kts 212°
2026-05-05 19:12 30.61668 35.67458 25233 ft 418 kts 212°
2026-05-05 19:13 30.59087 35.65897 25508 ft 420 kts 212°
2026-05-05 19:13 30.56467 35.64312 25756 ft 422 kts 213°
2026-05-05 19:13 30.53899 35.62759 26016 ft 424 kts 213°
2026-05-05 19:13 30.51255 35.61160 26017 ft 425 kts 213°
2026-05-05 19:14 30.48644 35.59584 26019 ft 423 kts 213°
2026-05-05 19:14 30.46044 35.58015 26021 ft 421 kts 213°
2026-05-05 19:14 30.43463 35.56457 26021 ft 420 kts 213°
2026-05-05 19:14 30.40881 35.54899 26020 ft 421 kts 213°
2026-05-05 19:15 30.38281 35.53330 26020 ft 421 kts 213°
2026-05-05 19:15 30.35692 35.51770 26020 ft 421 kts 213°
2026-05-05 19:15 30.33102 35.50209 26020 ft 421 kts 213°
2026-05-05 19:15 30.30501 35.48644 26020 ft 422 kts 213°
2026-05-05 19:16 30.27899 35.47078 26020 ft 421 kts 213°
2026-05-05 19:16 30.25309 35.45520 26020 ft 421 kts 213°
2026-05-05 19:16 30.22662 35.43990 26019 ft 423 kts 210°
2026-05-05 19:16 30.19920 35.42762 26022 ft 427 kts 204°
2026-05-05 19:17 30.17098 35.41725 26020 ft 428 kts 204°
2026-05-05 19:17 30.14271 35.40678 26020 ft 428 kts 204°
2026-05-05 19:17 30.11439 35.39603 26020 ft 428 kts 204°
2026-05-05 19:17 30.08625 35.38541 26020 ft 428 kts 204°
2026-05-05 19:18 30.05822 35.37494 26020 ft 428 kts 204°
2026-05-05 19:18 30.02976 35.36435 26020 ft 428 kts 204°
2026-05-05 19:18 30.00171 35.35393 26020 ft 428 kts 204°
2026-05-05 19:18 29.97337 35.34341 26019 ft 429 kts 203°
2026-05-05 19:19 29.94502 35.33292 26020 ft 429 kts 203°
2026-05-05 19:19 29.91669 35.32245 26020 ft 429 kts 203°
2026-05-05 19:19 29.88848 35.31204 26020 ft 429 kts 203°
2026-05-05 19:19 29.85981 35.30146 26020 ft 429 kts 203°
2026-05-05 19:20 29.83184 35.29115 26020 ft 429 kts 203°
2026-05-05 19:20 29.80354 35.28072 26020 ft 428 kts 203°
2026-05-05 19:20 29.77486 35.27017 26020 ft 428 kts 203°
2026-05-05 19:20 29.74683 35.25986 26020 ft 428 kts 203°
2026-05-05 19:21 29.71859 35.24948 26025 ft 429 kts 203°
2026-05-05 19:21 29.68999 35.23898 26030 ft 428 kts 203°
2026-05-05 19:21 29.66175 35.22861 26035 ft 429 kts 203°
2026-05-05 19:21 29.63347 35.21824 26040 ft 428 kts 203°
2026-05-05 19:22 29.60575 35.20625 26042 ft 423 kts 211°
2026-05-05 19:22 29.58070 35.18956 26046 ft 416 kts 220°
2026-05-05 19:22 29.55936 35.16737 26051 ft 410 kts 231°
2026-05-05 19:22 29.54112 35.14249 26048 ft 410 kts 233°
2026-05-05 19:23 29.52275 35.11723 26047 ft 410 kts 232°
2026-05-05 19:23 29.50417 35.09246 26047 ft 410 kts 232°
2026-05-05 19:23 29.48586 35.06799 26046 ft 410 kts 232°
2026-05-05 19:23 29.46719 35.04287 26047 ft 410 kts 232°
2026-05-05 19:24 29.44893 35.01827 26047 ft 410 kts 232°
2026-05-05 19:24 29.43008 34.99348 26045 ft 411 kts 230°
2026-05-05 19:24 29.40942 34.97091 26046 ft 415 kts 224°
2026-05-05 19:24 29.38616 34.95090 26050 ft 419 kts 219°
2026-05-05 19:25 29.36219 34.93204 26047 ft 420 kts 219°
2026-05-05 19:25 29.33834 34.91296 26046 ft 420 kts 220°
2026-05-05 19:25 29.31418 34.89348 26047 ft 421 kts 220°
2026-05-05 19:25 29.29036 34.87443 26047 ft 422 kts 220°
2026-05-05 19:26 29.26613 34.85520 26047 ft 423 kts 220°
2026-05-05 19:26 29.24192 34.83603 26047 ft 423 kts 220°
2026-05-05 19:26 29.21777 34.81693 26047 ft 424 kts 220°
2026-05-05 19:26 29.19361 34.79787 26047 ft 425 kts 220°
2026-05-05 19:27 29.16895 34.77844 26046 ft 425 kts 220°
2026-05-05 19:27 29.14474 34.75938 26046 ft 424 kts 220°
2026-05-05 19:27 29.12065 34.74045 26047 ft 424 kts 220°
2026-05-05 19:27 29.09747 34.71950 26043 ft 419 kts 229°
2026-05-05 19:28 29.07874 34.69429 26046 ft 414 kts 240°
2026-05-05 19:28 29.06577 34.66519 26049 ft 411 kts 252°
2026-05-05 19:28 29.05866 34.63395 26048 ft 410 kts 262°
2026-05-05 19:28 29.05712 34.60138 26044 ft 410 kts 274°
2026-05-05 19:29 29.06246 34.56925 26053 ft 412 kts 285°
2026-05-05 19:29 29.07163 34.53850 26043 ft 412 kts 287°
2026-05-05 19:29 29.08098 34.50744 26046 ft 411 kts 286°
2026-05-05 19:29 29.08991 34.47630 26046 ft 410 kts 286°
2026-05-05 19:30 29.09877 34.44544 26047 ft 410 kts 286°
2026-05-05 19:30 29.10768 34.41480 26047 ft 410 kts 286°
2026-05-05 19:30 29.11667 34.38392 26047 ft 409 kts 286°
2026-05-05 19:30 29.12567 34.35300 26047 ft 409 kts 286°
2026-05-05 19:31 29.13463 34.32217 26046 ft 409 kts 285°
2026-05-05 19:31 29.14358 34.29139 26040 ft 409 kts 285°
2026-05-05 19:31 29.15263 34.26027 26033 ft 409 kts 285°
2026-05-05 19:31 29.16150 34.22972 26026 ft 409 kts 285°
2026-05-05 19:32 29.17059 34.19842 26020 ft 409 kts 285°
2026-05-05 19:32 29.17953 34.16761 26016 ft 409 kts 285°
2026-05-05 19:32 29.18850 34.13663 26012 ft 409 kts 285°
2026-05-05 19:32 29.19747 34.10569 26010 ft 409 kts 285°
2026-05-05 19:33 29.20647 34.07457 26009 ft 409 kts 285°
2026-05-05 19:33 29.21541 34.04368 26007 ft 409 kts 285°
2026-05-05 19:33 29.22427 34.01301 26005 ft 409 kts 285°
2026-05-05 19:33 29.23321 33.98201 26001 ft 409 kts 285°
2026-05-05 19:34 29.24217 33.95094 25996 ft 409 kts 285°
2026-05-05 19:34 29.25108 33.92001 25990 ft 409 kts 285°
2026-05-05 19:34 29.26002 33.88897 25983 ft 409 kts 285°
2026-05-05 19:35 29.27781 33.82713 25966 ft 409 kts 285°
2026-05-05 19:35 29.28672 33.79609 25968 ft 409 kts 285°
2026-05-05 19:35 29.29551 33.76545 25971 ft 409 kts 285°
2026-05-05 19:35 29.30445 33.73428 25973 ft 409 kts 285°
2026-05-05 19:36 29.31330 33.70336 25973 ft 410 kts 285°
2026-05-05 19:36 29.32213 33.67248 25973 ft 410 kts 285°
2026-05-05 19:36 29.33105 33.64126 25971 ft 409 kts 285°
2026-05-05 19:36 29.33992 33.61021 25968 ft 409 kts 285°
2026-05-05 19:37 29.34871 33.57939 25966 ft 409 kts 285°
2026-05-05 19:37 29.35757 33.54831 25966 ft 409 kts 285°
2026-05-05 19:37 29.36645 33.51711 25966 ft 409 kts 285°
2026-05-05 19:37 29.37526 33.48612 25966 ft 409 kts 285°
2026-05-05 19:38 29.38409 33.45502 25966 ft 409 kts 285°
2026-05-05 19:38 29.39277 33.42446 25965 ft 409 kts 285°
2026-05-05 19:38 29.40160 33.39331 25966 ft 409 kts 285°
2026-05-05 19:38 29.41039 33.36226 25966 ft 409 kts 285°
2026-05-05 19:39 29.41914 33.33136 25965 ft 409 kts 285°
2026-05-05 19:39 29.42794 33.30024 25966 ft 409 kts 285°
2026-05-05 19:39 29.43675 33.26901 25966 ft 409 kts 285°
2026-05-05 19:39 29.44551 33.23796 25966 ft 409 kts 285°
2026-05-05 19:40 29.45422 33.20707 25966 ft 409 kts 285°
2026-05-05 19:40 29.46295 33.17606 25966 ft 409 kts 285°
2026-05-05 19:40 29.47169 33.14497 25966 ft 409 kts 285°
2026-05-05 19:40 29.48048 33.11370 25966 ft 409 kts 285°
2026-05-05 19:41 29.48917 33.08274 25967 ft 407 kts 285°
2026-05-05 19:41 29.49777 33.05214 25724 ft 400 kts 285°
2026-05-05 19:41 29.50612 33.02235 25195 ft 392 kts 286°
2026-05-05 19:41 29.51440 32.99274 24669 ft 384 kts 286°
2026-05-05 19:42 29.52254 32.96363 24140 ft 377 kts 286°
2026-05-05 19:42 29.53043 32.93539 23616 ft 370 kts 287°
2026-05-05 19:42 29.53812 32.90783 23095 ft 364 kts 287°
2026-05-05 19:42 29.54578 32.88032 22567 ft 358 kts 287°
2026-05-05 19:43 29.55337 32.85307 22036 ft 353 kts 287°
2026-05-05 19:43 29.56071 32.82670 21514 ft 348 kts 288°
2026-05-05 19:43 29.56806 32.80025 20985 ft 343 kts 288°
2026-05-05 19:43 29.57521 32.77451 20463 ft 340 kts 288°
2026-05-05 19:44 29.58238 32.74871 19934 ft 336 kts 288°
2026-05-05 19:44 29.58939 32.72343 19411 ft 333 kts 288°
2026-05-05 19:44 29.59637 32.69826 18885 ft 330 kts 288°
2026-05-05 19:44 29.60306 32.67309 18356 ft 327 kts 286°
2026-05-05 19:45 29.60870 32.64786 17830 ft 325 kts 285°
2026-05-05 19:45 29.61413 32.62313 17310 ft 323 kts 285°
2026-05-05 19:45 29.61979 32.59824 16783 ft 321 kts 285°
2026-05-05 19:45 29.62544 32.57339 16254 ft 319 kts 285°
2026-05-05 19:46 29.63103 32.54868 15725 ft 318 kts 285°
2026-05-05 19:46 29.63655 32.52432 15216 ft 316 kts 285°
2026-05-05 19:46 29.64195 32.50044 15108 ft 300 kts 286°
2026-05-05 19:46 29.64707 32.47778 15100 ft 284 kts 286°
2026-05-05 19:47 29.65202 32.45592 15105 ft 283 kts 286°
2026-05-05 19:47 29.65701 32.43383 15101 ft 287 kts 286°
2026-05-05 19:47 29.66203 32.41158 15101 ft 288 kts 286°
2026-05-05 19:47 29.66706 32.38929 15101 ft 287 kts 286°
2026-05-05 19:48 29.67214 32.36677 15101 ft 287 kts 286°
2026-05-05 19:48 29.67714 32.34452 15101 ft 287 kts 285°
2026-05-05 19:48 29.68216 32.32223 15101 ft 287 kts 285°
2026-05-05 19:48 29.68718 32.29991 15101 ft 287 kts 285°
2026-05-05 19:49 29.69215 32.27777 15101 ft 287 kts 285°
2026-05-05 19:49 29.69716 32.25545 15101 ft 287 kts 285°
2026-05-05 19:49 29.70209 32.23344 15101 ft 287 kts 285°
2026-05-05 19:49 29.70712 32.21100 15101 ft 287 kts 285°
2026-05-05 19:50 29.71212 32.18866 15101 ft 287 kts 285°
2026-05-05 19:50 29.71707 32.16655 15101 ft 287 kts 285°
2026-05-05 19:50 29.72208 32.14414 15101 ft 287 kts 285°
2026-05-05 19:50 29.72706 32.12183 15101 ft 287 kts 285°
2026-05-05 19:51 29.73199 32.09971 15101 ft 287 kts 285°
2026-05-05 19:51 29.73699 32.07727 15101 ft 287 kts 285°
2026-05-05 19:51 29.74195 32.05499 15101 ft 287 kts 285°
2026-05-05 19:51 29.74690 32.03274 15101 ft 287 kts 285°
2026-05-05 19:52 29.75184 32.01053 15101 ft 287 kts 285°
2026-05-05 19:52 29.75677 31.98836 15101 ft 287 kts 285°
2026-05-05 19:52 29.76172 31.96603 15101 ft 287 kts 285°
2026-05-05 19:52 29.76670 31.94358 15101 ft 287 kts 285°
2026-05-05 19:53 29.77162 31.92136 15101 ft 287 kts 285°
2026-05-05 19:53 29.77660 31.89890 15100 ft 286 kts 285°
2026-05-05 19:53 29.78204 31.87734 15018 ft 274 kts 291°
2026-05-05 19:53 29.79048 31.85792 14762 ft 267 kts 303°
2026-05-05 19:54 29.80121 31.84110 14517 ft 260 kts 307°
2026-05-05 19:54 29.81199 31.82443 14265 ft 254 kts 306°
2026-05-05 19:54 29.82231 31.80824 14015 ft 249 kts 306°
2026-05-05 19:54 29.83265 31.79219 13764 ft 247 kts 306°
2026-05-05 19:55 29.84285 31.77640 13518 ft 248 kts 306°
2026-05-05 19:55 29.85318 31.76038 13269 ft 249 kts 306°
2026-05-05 19:55 29.86367 31.74436 13014 ft 249 kts 310°
2026-05-05 19:55 29.87758 31.73194 12445 ft 260 kts 335°
2026-05-05 19:56 29.89449 31.72424 11845 ft 269 kts 335°
2026-05-05 19:56 29.91152 31.71501 11217 ft 276 kts 332°
2026-05-05 19:56 29.92916 31.70476 10272 ft 295 kts 332°
2026-05-05 19:56 29.94796 31.69386 8820 ft 327 kts 333°
2026-05-05 19:57 29.96868 31.68173 7238 ft 350 kts 333°
2026-05-05 19:57 29.99024 31.66907 6375 ft 341 kts 333°
2026-05-05 19:57 30.01048 31.65716 6100 ft 317 kts 333°
2026-05-05 19:57 30.02959 31.64591 5863 ft 296 kts 333°
2026-05-05 19:58 30.04730 31.63547 5638 ft 278 kts 333°
2026-05-05 19:58 30.06399 31.62563 5385 ft 264 kts 333°
2026-05-05 19:58 30.08005 31.61615 5131 ft 248 kts 333°
2026-05-05 19:58 30.09487 31.60740 4844 ft 234 kts 333°
2026-05-05 19:59 30.10889 31.59911 4558 ft 219 kts 333°
2026-05-05 19:59 30.12177 31.59149 4291 ft 195 kts 334°
2026-05-05 19:59 30.13315 31.58477 3993 ft 175 kts 334°
2026-05-05 19:59 30.14331 31.57876 3826 ft 153 kts 334°
2026-05-05 20:00 30.15284 31.57312 3975 ft 158 kts 334°
2026-05-05 20:00 30.16277 31.56725 3815 ft 161 kts 334°
2026-05-05 20:00 30.17262 31.56142 3652 ft 159 kts 334°
2026-05-05 20:00 30.18255 31.55555 3485 ft 159 kts 334°
2026-05-05 20:01 30.19234 31.54970 3268 ft 158 kts 330°
2026-05-05 20:01 30.19952 31.54026 2993 ft 163 kts 287°
2026-05-05 20:01 30.19720 31.52758 2890 ft 172 kts 231°
2026-05-05 20:01 30.18790 31.51894 3161 ft 176 kts 221°
2026-05-05 20:02 30.17996 31.50798 3086 ft 176 kts 244°
2026-05-05 20:02 30.17337 31.49607 2612 ft 182 kts 236°
2026-05-05 20:02 30.16505 31.48485 1930 ft 184 kts 231°
2026-05-05 20:02 30.15674 31.47411 1455 ft 175 kts 232°
2026-05-05 20:03 30.14892 31.46383 1107 ft 166 kts 232°
2026-05-05 20:03 30.14121 31.45356 1024 ft 170 kts 234°
2026-05-05 20:03 30.13349 31.44279 770 ft 174 kts 233°
2026-05-05 20:03 30.12559 31.43244 530 ft 169 kts 231°
2026-05-05 20:04 30.11785 31.42213 372 ft 174 kts 229°
2026-05-05 20:04 30.11156 31.41398 379 ft 83 kts 231°
2026-05-05 20:04 30.10925 31.41088 383 ft 44 kts 231°
2026-05-05 20:04 30.10751 31.40826 386 ft 31 kts 250°
2026-05-05 20:05 30.10840 31.40626 374 ft 29 kts 276°
2026-05-05 20:05 30.10702 31.40382 368 ft 42 kts 233°
2026-05-05 20:05 30.10499 31.40119 368 ft 46 kts 229°
2026-05-05 20:05 30.10311 31.39881 370 ft 28 kts 228°
2026-05-05 20:06 30.10188 31.39706 371 ft 28 kts 230°
2026-05-05 20:06 30.10195 31.39578 365 ft 18 kts 30°
2026-05-05 20:06 30.10266 31.39666 366 ft 0 kts 49°
2026-05-05 20:08 30.10277 31.39682 366 ft 14 kts 51°
2026-05-05 20:08 30.10381 31.39787 363 ft 22 kts 10°
2026-05-05 20:08 30.10565 31.39742 351 ft 27 kts 345°
2026-05-05 20:09 30.10724 31.39807 344 ft 18 kts 36°
2026-05-05 20:09 30.10786 31.39840 343 ft 3 kts 57°
2026-05-05 20:09 30.10787 31.39854 343 ft 3 kts 80°
2026-05-05 20:09 30.10792 31.39878 344 ft 0 kts 76°